Location: Eindhoven
(51.4416°N, 5.4697°E)
Time: 12:28:53
(UTC+01:00)

deb Explorer IX - Pass Details

Date: 25 November 2019
Orbit: 546 x 1104 km, 38.8° (Epoch: 11 December)

Event Time Altitude Azimuth Distance (km) Brightness Sun altitude
Rises 02:45:14 0° 257° (WSW) 3,767 - -48.9°
Reaches altitude 10° 02:48:39 10° 243° (WSW) 2,730 - -48.4°
Maximum altitude 02:53:28 22° 196° (SSW) 1,879 - -47.8°
Drops below altitude 10° 02:57:49 10° 148° (SSE) 2,437 - -47.2°
Sets 03:00:40 0° 133° (SE) 3,262 - -46.8°
